| time (UTC) | temp F | wind direction | speed MPH | gust MPH | rain 1hr in | rain 24hr in | rain mn in | humidity % | barometer mb |
| 20260507203101 | 63 | 0 | 0.0 | 3.0 | 0.00 | 0.00 | 0.00 | 43 | 1012.7 |
| 20260507201557 | 63 | 0 | 0.0 | 6.0 | 0.00 | 0.00 | 0.00 | 38 | 1012.9 |
| 20260507200059 | 63 | 0 | 0.0 | 4.0 | 0.00 | 0.00 | 0.00 | 37 | 1013.0 |
| 20260507194559 | 63 | 0 | 0.0 | 1.0 | 0.00 | 0.00 | 0.00 | 39 | 1013.0 |
| 20260507193058 | 62 | 0 | 0.0 | 4.0 | 0.00 | 0.00 | 0.00 | 37 | 1013.0 |
| 20260507191558 | 62 | 0 | 0.0 | 4.0 | 0.00 | 0.00 | 0.00 | 36 | 1013.2 |
| 20260507190055 | 62 | 345 | 0.0 | 6.0 | 0.00 | 0.00 | 0.00 | 41 | 1013.1 |
| 20260507184556 | 62 | 0 | 0.0 | 10.0 | 0.00 | 0.00 | 0.00 | 40 | 1013.3 |
| 20260507183056 | 62 | 0 | 0.0 | 1.0 | 0.00 | 0.00 | 0.00 | 38 | 1013.4 |
| 20260507181558 | 61 | 0 | 0.0 | 13.0 | 0.00 | 0.00 | 0.00 | 39 | 1013.5 |
| 20260507174608 | 61 | 0 | 0.0 | 8.0 | 0.00 | 0.00 | 0.00 | 40 | 1013.7 |
| 20260507173058 | 60 | 0 | 0.0 | 9.0 | 0.00 | 0.00 | 0.00 | 37 | 1013.9 |
| 20260507171611 | 61 | 0 | 0.0 | 2.0 | 0.00 | 0.00 | 0.00 | 37 | 1013.8 |
| 20260507170100 | 60 | 0 | 0.0 | 9.0 | 0.00 | 0.00 | 0.00 | 38 | 1014.2 |
| 20260507164556 | 60 | 0 | 0.0 | 4.0 | 0.00 | 0.00 | 0.00 | 37 | 1014.5 |
| 20260507163101 | 59 | 0 | 0.0 | 4.0 | 0.00 | 0.00 | 0.00 | 39 | 1014.5 |
| 20260507161602 | 59 | 0 | 0.0 | 4.0 | 0.00 | 0.00 | 0.00 | 41 | 1014.8 |
| 20260507160058 | 58 | 0 | 1.0 | 8.0 | 0.00 | 0.00 | 0.00 | 45 | 1014.9 |
| 20260507154556 | 58 | 0 | 0.0 | 9.0 | 0.00 | 0.00 | 0.00 | 44 | 1014.5 |
| 20260507153104 | 58 | 0 | 0.0 | 10.0 | 0.00 | 0.00 | 0.00 | 45 | 1014.8 |
| 20260507151555 | 57 | 0 | 0.0 | 3.0 | 0.00 | 0.00 | 0.00 | 42 | 1014.8 |
| 20260507144557 | 56 | 0 | 0.0 | 1.0 | 0.00 | 0.00 | 0.00 | 48 | 1014.7 |
| 20260507143059 | 55 | 45 | 0.0 | 9.0 | 0.00 | 0.00 | 0.00 | 50 | 1014.7 |
| 20260507141559 | 55 | 47 | 0.0 | 2.0 | 0.00 | 0.00 | 0.00 | 50 | 1014.7 |
| 20260507140107 | 53 | 0 | 0.0 | 2.0 | 0.00 | 0.00 | 0.00 | 59 | 1014.6 |
| 20260507134601 | 52 | 0 | 0.0 | 2.0 | 0.00 | 0.00 | 0.00 | 62 | 1014.6 |
| 20260507133116 | 51 | 0 | 0.0 | 0.0 | 0.00 | 0.00 | 0.00 | 68 | 1014.5 |
| 20260507131557 | 49 | 0 | 0.0 | 0.0 | 0.00 | 0.00 | 0.00 | 75 | 1014.6 |
| 20260507130110 | 48 | 0 | 0.0 | 0.0 | 0.00 | 0.00 | 0.00 | 76 | 1014.6 |
| 20260507124633 | 46 | 0 | 0.0 | 0.0 | 0.00 | 0.00 | 0.00 | 87 | 1014.6 |
| 20260507123103 | 43 | 0 | 0.0 | 0.0 | 0.00 | 0.00 | 0.00 | 95 | 1014.6 |
| 20260507121557 | 42 | 0 | 0.0 | 0.0 | 0.00 | 0.00 | 0.00 | 96 | 1014.6 |
| 20260507120058 | 40 | 0 | 0.0 | 0.0 | 0.00 | 0.00 | 0.00 | 96 | 1014.5 |
| 20260507114612 | 39 | 0 | 0.0 | 0.0 | 0.00 | 0.00 | 0.00 | 95 | 1014.5 |
| 20260507113058 | 39 | 0 | 0.0 | 0.0 | 0.00 | 0.00 | 0.00 | 95 | 1014.7 |
| 20260507111601 | 39 | 0 | 0.0 | 0.0 | 0.00 | 0.00 | 0.00 | 95 | 1014.6 |
| 20260507110058 | 39 | 0 | 0.0 | 0.0 | 0.00 | 0.00 | 0.00 | 95 | 1014.4 |
| 20260507104558 | 39 | 0 | 0.0 | 0.0 | 0.00 | 0.00 | 0.00 | 95 | 1014.5 |
| 20260507103100 | 40 | 0 | 0.0 | 0.0 | 0.00 | 0.00 | 0.00 | 95 | 1014.4 |
| 20260507101601 | 40 | 0 | 0.0 | 0.0 | 0.00 | 0.00 | 0.00 | 95 | 1014.3 |
| 20260507094601 | 41 | 0 | 0.0 | 0.0 | 0.00 | 0.00 | 0.00 | 96 | 1014.0 |
| 20260507093059 | 41 | 0 | 0.0 | 0.0 | 0.00 | 0.00 | 0.00 | 96 | 1014.0 |
| 20260507091608 | 41 | 0 | 0.0 | 0.0 | 0.00 | 0.00 | 0.00 | 96 | 1013.8 |
| 20260507090106 | 41 | 0 | 0.0 | 0.0 | 0.00 | 0.00 | 0.00 | 96 | 1013.7 |
| 20260507084555 | 41 | 0 | 0.0 | 0.0 | 0.00 | 0.01 | 0.00 | 96 | 1013.6 |
| 20260507083056 | 41 | 0 | 0.0 | 0.0 | 0.00 | 0.01 | 0.00 | 96 | 1013.4 |
| 20260507081555 | 42 | 0 | 0.0 | 0.0 | 0.00 | 0.01 | 0.00 | 96 | 1013.3 |
| 20260507074612 | 43 | 0 | 0.0 | 0.0 | 0.00 | 0.01 | 0.00 | 96 | 1013.3 |
| 20260507073057 | 43 | 0 | 0.0 | 0.0 | 0.00 | 0.01 | 0.00 | 96 | 1013.2 |
| 20260507071557 | 43 | 0 | 0.0 | 0.0 | 0.00 | 0.01 | 0.00 | 96 | 1013.1 |
| 20260507070115 | 43 | 0 | 0.0 | 0.0 | 0.00 | 0.01 | 0.00 | 96 | 1013.1 |
| 20260507064605 | 44 | 0 | 0.0 | 0.0 | 0.00 | 0.09 | 0.00 | 95 | 1013.3 |
| 20260507063100 | 44 | 0 | 0.0 | 0.0 | 0.00 | 0.09 | 0.00 | 96 | 1013.4 |
| 20260507061557 | 44 | 0 | 0.0 | 0.0 | 0.00 | 0.09 | 0.00 | 96 | 1013.4 |
| 20260507060059 | 44 | 0 | 0.0 | 0.0 | 0.00 | 0.09 | 0.00 | 95 | 1013.5 |
| 20260507054557 | 45 | 0 | 0.0 | 0.0 | 0.00 | 0.17 | 0.00 | 96 | 1013.6 |
| 20260507053059 | 44 | 0 | 0.0 | 0.0 | 0.00 | 0.17 | 0.00 | 95 | 1013.5 |
| 20260507051600 | 44 | 0 | 0.0 | 0.0 | 0.00 | 0.17 | 0.00 | 95 | 1013.7 |
| 20260507050056 | 44 | 0 | 0.0 | 0.0 | 0.00 | 0.17 | 0.00 | 95 | 1013.7 |
| 20260507044559 | 44 | 0 | 0.0 | 0.0 | 0.00 | 0.26 | 0.17 | 95 | 1013.5 |
| 20260507043057 | 44 | 0 | 0.0 | 0.0 | 0.00 | 0.26 | 0.17 | 95 | 1013.2 |
| 20260507041600 | 45 | 0 | 0.0 | 0.0 | 0.00 | 0.26 | 0.17 | 94 | 1013.4 |
| 20260507040110 | 45 | 0 | 0.0 | 0.0 | 0.00 | 0.26 | 0.17 | 94 | 1013.3 |
| 20260507034557 | 46 | 0 | 0.0 | 0.0 | 0.00 | 0.34 | 0.17 | 94 | 1013.7 |
| 20260507033102 | 46 | 0 | 0.0 | 0.0 | 0.00 | 0.34 | 0.17 | 93 | 1013.6 |
| 20260507031618 | 46 | 0 | 0.0 | 0.0 | 0.00 | 0.34 | 0.17 | 92 | 1013.7 |
| 20260507030057 | 47 | 0 | 0.0 | 0.0 | 0.00 | 0.34 | 0.17 | 92 | 1013.9 |
| 20260507024556 | 47 | 0 | 0.0 | 0.0 | 0.00 | 0.34 | 0.17 | 91 | 1013.7 |
| 20260507023058 | 47 | 0 | 0.0 | 0.0 | 0.00 | 0.34 | 0.17 | 90 | 1013.3 |
| 20260507021602 | 48 | 0 | 0.0 | 0.0 | 0.00 | 0.34 | 0.17 | 90 | 1013.3 |
| 20260507020059 | 49 | 0 | 0.0 | 0.0 | 0.00 | 0.34 | 0.17 | 88 | 1012.9 |
| 20260507014605 | 49 | 0 | 0.0 | 0.0 | 0.00 | 0.35 | 0.17 | 87 | 1012.7 |
| 20260507013117 | 50 | 0 | 0.0 | 0.0 | 0.00 | 0.35 | 0.17 | 86 | 1012.5 |
| 20260507011609 | 52 | 0 | 0.0 | 0.0 | 0.00 | 0.35 | 0.17 | 84 | 1012.2 |
| 20260507010108 | 53 | 0 | 0.0 | 0.0 | 0.00 | 0.35 | 0.17 | 83 | 1012.3 |
| 20260507004557 | 54 | 0 | 0.0 | 0.0 | 0.00 | 0.36 | 0.17 | 81 | 1012.2 |
| 20260507003059 | 55 | 0 | 0.0 | 0.0 | 0.00 | 0.36 | 0.17 | 78 | 1012.1 |
| 20260507001558 | 56 | 0 | 0.0 | 0.0 | 0.00 | 0.36 | 0.17 | 78 | 1012.2 |
| 20260507000059 | 57 | 0 | 0.0 | 0.0 | 0.00 | 0.36 | 0.17 | 74 | 1012.2 |
| 20260506234558 | 57 | 0 | 0.0 | 0.0 | 0.00 | 0.37 | 0.17 | 68 | 1012.0 |
| 20260506233112 | 58 | 0 | 0.0 | 0.0 | 0.00 | 0.37 | 0.17 | 66 | 1011.9 |
| 20260506231613 | 58 | 0 | 0.0 | 0.0 | 0.00 | 0.37 | 0.17 | 66 | 1011.8 |
| 20260506230106 | 58 | 0 | 0.0 | 0.0 | 0.00 | 0.37 | 0.17 | 64 | 1011.9 |
| 20260506224556 | 59 | 0 | 0.0 | 0.0 | 0.00 | 0.51 | 0.17 | 67 | 1012.2 |
| 20260506223055 | 59 | 0 | 0.0 | 0.0 | 0.00 | 0.51 | 0.17 | 65 | 1012.2 |
| 20260506221600 | 59 | 0 | 0.0 | 0.0 | 0.00 | 0.51 | 0.17 | 64 | 1012.0 |
| 20260506220100 | 59 | 0 | 0.0 | 0.0 | 0.00 | 0.51 | 0.17 | 64 | 1011.7 |
| 20260506214600 | 59 | 0 | 0.0 | 0.0 | 0.00 | 0.65 | 0.17 | 65 | 1011.5 |
| 20260506213056 | 59 | 0 | 0.0 | 1.0 | 0.00 | 0.65 | 0.17 | 66 | 1011.4 |
| 20260506211608 | 59 | 0 | 0.0 | 2.0 | 0.00 | 0.65 | 0.17 | 63 | 1011.2 |
| 20260506210056 | 60 | 0 | 0.0 | 0.0 | 0.00 | 0.65 | 0.17 | 65 | 1011.6 |
| 20260506204555 | 60 | 0 | 0.0 | 1.0 | 0.00 | 0.68 | 0.17 | 64 | 1012.2 |